Year,Month,Day,Hour,Minute,Value (Times are PST for temperature in C)
2017,06,25,00,01,17.10
2017,06,25,00,02,17.10
2017,06,25,00,03,17.00
2017,06,25,00,04,17.00
2017,06,25,00,06,17.00
2017,06,25,00,07,16.90
2017,06,25,00,09,16.90
2017,06,25,00,10,16.90
2017,06,25,00,11,16.90
2017,06,25,00,12,16.90
2017,06,25,00,13,17.00
2017,06,25,00,14,17.00
2017,06,25,00,15,17.00
2017,06,25,00,16,17.00
2017,06,25,00,17,17.00
2017,06,25,00,18,17.00
2017,06,25,00,19,17.10
2017,06,25,00,20,17.10
2017,06,25,00,21,17.10
2017,06,25,00,22,17.20
2017,06,25,00,23,17.20
2017,06,25,00,24,17.30
2017,06,25,00,25,17.30
2017,06,25,00,26,17.30
2017,06,25,00,27,17.30
2017,06,25,00,28,17.40
2017,06,25,00,29,17.40
2017,06,25,00,30,17.50
2017,06,25,00,31,17.50
2017,06,25,00,32,17.60
2017,06,25,00,33,17.60
2017,06,25,00,34,17.70
2017,06,25,00,35,17.70
2017,06,25,00,36,17.80
2017,06,25,00,37,17.80
2017,06,25,00,38,17.80
2017,06,25,00,39,17.90
2017,06,25,00,40,17.90
2017,06,25,00,41,17.90
2017,06,25,00,42,17.90
2017,06,25,00,43,17.90
2017,06,25,00,44,17.90
2017,06,25,00,45,17.90
2017,06,25,00,46,17.90
2017,06,25,00,47,17.90
2017,06,25,00,48,17.90
2017,06,25,00,49,17.90
2017,06,25,00,50,17.90
2017,06,25,00,51,17.90
2017,06,25,00,52,17.90
2017,06,25,00,53,17.90
2017,06,25,00,54,17.90
2017,06,25,00,55,17.90
2017,06,25,00,56,17.90
2017,06,25,00,57,17.90
2017,06,25,00,58,18.10
2017,06,25,00,59,18.10
2017,06,25,01,00,18.10
2017,06,25,01,01,18.10
2017,06,25,01,02,18.10
2017,06,25,01,03,18.10
2017,06,25,01,04,18.10
2017,06,25,01,05,18.10
2017,06,25,01,06,18.10
2017,06,25,01,07,18.10
2017,06,25,01,08,18.10
2017,06,25,01,09,17.90
2017,06,25,01,10,17.90
2017,06,25,01,11,17.90
2017,06,25,01,12,17.90
2017,06,25,01,13,17.90
2017,06,25,01,14,17.90
2017,06,25,01,15,17.90
2017,06,25,01,16,17.90
2017,06,25,01,17,17.90
2017,06,25,01,18,17.80
2017,06,25,01,19,17.80
2017,06,25,01,20,17.80
2017,06,25,01,21,17.80
2017,06,25,01,22,17.80
2017,06,25,01,23,17.70
2017,06,25,01,24,17.70
2017,06,25,01,25,17.70
2017,06,25,01,26,17.70
2017,06,25,01,27,17.70
2017,06,25,01,28,17.70
2017,06,25,01,29,17.70
2017,06,25,01,30,17.70
2017,06,25,01,31,17.70
2017,06,25,01,32,17.60
2017,06,25,01,33,17.60
2017,06,25,01,34,17.60
2017,06,25,01,35,17.60
2017,06,25,01,37,17.60
2017,06,25,01,38,17.50
2017,06,25,01,39,17.50
2017,06,25,01,41,17.50
2017,06,25,01,42,17.40
2017,06,25,01,43,17.40
2017,06,25,01,44,17.40
2017,06,25,01,46,17.40
2017,06,25,01,47,17.40
2017,06,25,01,48,17.40
2017,06,25,01,49,17.40
2017,06,25,01,51,17.40
2017,06,25,01,52,17.40
2017,06,25,01,53,17.40
2017,06,25,01,54,17.40
2017,06,25,01,56,17.40
2017,06,25,01,57,17.40
2017,06,25,01,58,17.40
2017,06,25,01,59,17.40
2017,06,25,02,01,17.40
2017,06,25,02,02,17.40
2017,06,25,02,03,17.40
2017,06,25,02,04,17.30
2017,06,25,02,06,17.30
2017,06,25,02,07,17.30
2017,06,25,02,08,17.30
2017,06,25,02,09,17.30
2017,06,25,02,11,17.30
2017,06,25,02,12,17.30
2017,06,25,02,13,17.30
2017,06,25,02,14,17.30
2017,06,25,02,16,17.30
2017,06,25,02,17,17.30
2017,06,25,02,18,17.30
2017,06,25,02,19,17.20
2017,06,25,02,21,17.20
2017,06,25,02,22,17.20
2017,06,25,02,23,17.20
2017,06,25,02,24,17.20
2017,06,25,02,26,17.20
2017,06,25,02,27,17.20
2017,06,25,02,28,17.20
2017,06,25,02,29,17.20
2017,06,25,02,31,17.20
2017,06,25,02,32,17.20
2017,06,25,02,33,17.20
2017,06,25,02,34,17.20
2017,06,25,02,36,17.30
2017,06,25,02,37,17.30
2017,06,25,02,38,17.30
2017,06,25,02,39,17.30
2017,06,25,02,41,17.30
2017,06,25,02,42,17.30
2017,06,25,02,43,17.30
2017,06,25,02,44,17.30
2017,06,25,02,46,17.20
2017,06,25,02,47,17.20
2017,06,25,02,48,17.10
2017,06,25,02,49,17.10
2017,06,25,02,50,17.00
2017,06,25,02,51,17.00
2017,06,25,02,52,16.90
2017,06,25,02,53,16.80
2017,06,25,02,54,16.70
2017,06,25,02,55,16.70
2017,06,25,02,56,16.60
2017,06,25,02,57,16.60
2017,06,25,02,58,16.40
2017,06,25,02,59,16.40
2017,06,25,03,00,16.30
2017,06,25,03,01,16.30
2017,06,25,03,02,16.20
2017,06,25,03,03,16.10
2017,06,25,03,04,16.10
2017,06,25,03,05,15.90
2017,06,25,03,06,15.80
2017,06,25,03,07,15.80
2017,06,25,03,08,15.70
2017,06,25,03,09,15.60
2017,06,25,03,10,15.50
2017,06,25,03,11,15.50
2017,06,25,03,12,15.40
2017,06,25,03,13,15.30
2017,06,25,03,14,15.30
2017,06,25,03,15,15.30
2017,06,25,03,16,15.20
2017,06,25,03,17,15.10
2017,06,25,03,18,15.10
2017,06,25,03,19,15.00
2017,06,25,03,20,14.90
2017,06,25,03,21,14.90
2017,06,25,03,22,14.80
2017,06,25,03,23,14.80
2017,06,25,03,24,14.80
2017,06,25,03,25,14.70
2017,06,25,03,26,14.70
2017,06,25,03,27,14.60
2017,06,25,03,28,14.60
2017,06,25,03,29,14.50
2017,06,25,03,30,14.50
2017,06,25,03,31,14.40
2017,06,25,03,32,14.40
2017,06,25,03,33,14.30
2017,06,25,03,34,14.30
2017,06,25,03,35,14.30
2017,06,25,03,36,14.20
2017,06,25,03,37,14.20
2017,06,25,03,38,14.20
2017,06,25,03,39,14.20
2017,06,25,03,40,14.20
2017,06,25,03,41,14.20
2017,06,25,03,42,14.20
2017,06,25,03,43,14.20
2017,06,25,03,44,14.20
2017,06,25,03,45,14.20
2017,06,25,03,46,14.20
2017,06,25,03,47,14.20
2017,06,25,03,48,14.20
2017,06,25,03,49,14.20
2017,06,25,03,50,14.20
2017,06,25,03,51,14.20
2017,06,25,03,52,14.20
2017,06,25,03,53,14.20
2017,06,25,03,54,14.20
2017,06,25,03,55,14.20
2017,06,25,03,56,14.20
2017,06,25,03,57,14.20
2017,06,25,03,58,14.20
2017,06,25,03,59,14.20
2017,06,25,04,00,14.20
2017,06,25,04,02,14.20
2017,06,25,04,03,14.20
2017,06,25,04,04,14.20
2017,06,25,04,06,14.20
2017,06,25,04,07,14.20
2017,06,25,04,08,14.20
2017,06,25,04,09,14.20
2017,06,25,04,11,14.40
2017,06,25,04,12,14.40
2017,06,25,04,13,14.40
2017,06,25,04,14,14.50
2017,06,25,04,16,14.60
2017,06,25,04,17,14.70
2017,06,25,04,18,14.70
2017,06,25,04,19,14.70
2017,06,25,04,21,14.80
2017,06,25,04,22,14.80
2017,06,25,04,23,14.80
2017,06,25,04,24,14.80
2017,06,25,04,26,14.80
2017,06,25,04,27,14.90
2017,06,25,04,28,14.90
2017,06,25,04,29,14.90
2017,06,25,04,31,14.90
2017,06,25,04,32,14.90
2017,06,25,04,33,14.90
2017,06,25,04,34,14.90
2017,06,25,04,36,14.90
2017,06,25,04,37,14.90
2017,06,25,04,38,14.90
2017,06,25,04,39,14.90
2017,06,25,04,41,14.90
2017,06,25,04,42,14.80
2017,06,25,04,43,14.80
2017,06,25,04,44,14.80
2017,06,25,04,46,14.80
2017,06,25,04,47,14.80
2017,06,25,04,48,14.80
2017,06,25,04,49,14.80
2017,06,25,04,51,14.80
2017,06,25,04,52,14.70
2017,06,25,04,53,14.70
2017,06,25,04,54,14.70
2017,06,25,04,56,14.60
2017,06,25,04,57,14.60
2017,06,25,04,58,14.60
2017,06,25,04,59,14.60
2017,06,25,05,01,14.60
2017,06,25,05,02,14.50
2017,06,25,05,03,14.50
2017,06,25,05,04,14.50
2017,06,25,05,06,14.50
2017,06,25,05,07,14.50
2017,06,25,05,08,14.50
2017,06,25,05,09,14.50
2017,06,25,05,11,14.50
2017,06,25,05,12,14.50
2017,06,25,05,13,14.50
2017,06,25,05,14,14.40
2017,06,25,05,16,14.40
2017,06,25,05,17,14.40
2017,06,25,05,18,14.40
2017,06,25,05,19,14.40
2017,06,25,05,21,14.40
2017,06,25,05,22,14.40
2017,06,25,05,23,14.40
2017,06,25,05,24,14.30
2017,06,25,05,26,14.30
2017,06,25,05,27,14.30
2017,06,25,05,28,14.30
2017,06,25,05,29,14.30
2017,06,25,05,30,14.30
2017,06,25,05,31,14.30
2017,06,25,05,32,14.30
2017,06,25,05,33,14.30
2017,06,25,05,34,14.30
2017,06,25,05,36,14.30
2017,06,25,05,37,14.30
2017,06,25,05,38,14.30
2017,06,25,05,39,14.30
2017,06,25,05,40,14.30
2017,06,25,05,41,14.30
2017,06,25,05,42,14.30
2017,06,25,05,43,14.30
2017,06,25,05,44,14.30
2017,06,25,05,45,14.30
2017,06,25,05,46,14.30
2017,06,25,05,47,14.30
2017,06,25,05,48,14.30
2017,06,25,05,49,14.30
2017,06,25,05,50,14.30
2017,06,25,05,51,14.30
2017,06,25,05,52,14.30
2017,06,25,05,53,14.30
2017,06,25,05,54,14.30
2017,06,25,05,55,14.30
2017,06,25,05,56,14.20
2017,06,25,05,57,14.20
2017,06,25,05,58,14.20
2017,06,25,05,59,14.20
2017,06,25,06,00,14.20
2017,06,25,06,01,14.20
2017,06,25,06,02,14.20
2017,06,25,06,03,14.20
2017,06,25,06,04,14.20
2017,06,25,06,05,14.20
2017,06,25,06,06,14.20
2017,06,25,06,07,14.20
2017,06,25,06,08,14.20
2017,06,25,06,09,14.20
2017,06,25,06,10,14.20
2017,06,25,06,11,14.20
2017,06,25,06,12,14.20
2017,06,25,06,13,14.30
2017,06,25,06,14,14.30
2017,06,25,06,15,14.30
2017,06,25,06,16,14.30
2017,06,25,06,17,14.30
2017,06,25,06,18,14.40
2017,06,25,06,19,14.40
2017,06,25,06,20,14.40
2017,06,25,06,21,14.40
2017,06,25,06,22,14.40
2017,06,25,06,23,14.40
2017,06,25,06,24,14.40
2017,06,25,06,25,14.40
2017,06,25,06,26,14.40
2017,06,25,06,27,14.40
2017,06,25,06,28,14.40
2017,06,25,06,29,14.40
2017,06,25,06,30,14.40
2017,06,25,06,31,14.30
2017,06,25,06,32,14.30
2017,06,25,06,33,14.30
2017,06,25,06,34,14.30
2017,06,25,06,35,14.20
2017,06,25,06,36,14.20
2017,06,25,06,37,14.20
2017,06,25,06,38,14.20
2017,06,25,06,39,14.20
2017,06,25,06,40,14.20
2017,06,25,06,41,14.20
2017,06,25,06,42,14.20
2017,06,25,06,43,14.20
2017,06,25,06,44,14.20
2017,06,25,06,45,14.20
2017,06,25,06,46,14.20
2017,06,25,06,47,14.20
2017,06,25,06,48,14.30
2017,06,25,06,49,14.20
2017,06,25,06,50,14.20
2017,06,25,06,51,14.20
2017,06,25,06,53,14.30
2017,06,25,06,54,14.30
2017,06,25,06,56,14.40
2017,06,25,06,57,14.40
2017,06,25,06,58,14.40
2017,06,25,06,59,14.40
2017,06,25,07,01,14.40
2017,06,25,07,02,14.40
2017,06,25,07,03,14.40
2017,06,25,07,04,14.50
2017,06,25,07,06,14.50
2017,06,25,07,07,14.50
2017,06,25,07,08,14.50
2017,06,25,07,09,14.60
2017,06,25,07,11,14.70
2017,06,25,07,12,14.70
2017,06,25,07,13,14.80
2017,06,25,07,14,14.80
2017,06,25,07,16,14.80
2017,06,25,07,17,14.90
2017,06,25,07,18,14.90
2017,06,25,07,19,14.90
2017,06,25,07,21,15.00
2017,06,25,07,22,15.00
2017,06,25,07,23,15.00
2017,06,25,07,24,15.10
2017,06,25,07,26,15.20
2017,06,25,07,27,15.30
2017,06,25,07,28,15.30
2017,06,25,07,29,15.30
2017,06,25,07,31,15.30
2017,06,25,07,32,15.40
2017,06,25,07,33,15.40
2017,06,25,07,34,15.40
2017,06,25,07,36,15.40
2017,06,25,07,37,15.40
2017,06,25,07,38,15.30
2017,06,25,07,39,15.30
2017,06,25,07,41,15.30
2017,06,25,07,42,15.30
2017,06,25,07,43,15.30
2017,06,25,07,44,15.30
2017,06,25,07,46,15.30
2017,06,25,07,47,15.30
2017,06,25,07,48,15.30
2017,06,25,07,49,15.30
2017,06,25,07,51,15.30
2017,06,25,07,52,15.30
2017,06,25,07,53,15.30
2017,06,25,07,54,15.30
2017,06,25,07,56,15.30
2017,06,25,07,57,15.30
2017,06,25,07,58,15.30
2017,06,25,07,59,15.30
2017,06,25,08,01,15.20
2017,06,25,08,02,15.20
2017,06,25,08,03,15.20
2017,06,25,08,04,15.20
2017,06,25,08,06,15.30
2017,06,25,08,07,15.30
2017,06,25,08,08,15.30
2017,06,25,08,09,15.30
2017,06,25,08,11,15.40
2017,06,25,08,12,15.40
2017,06,25,08,13,15.50
2017,06,25,08,14,15.50
2017,06,25,08,15,15.50
2017,06,25,08,16,15.50
2017,06,25,08,17,15.60
2017,06,25,08,18,15.60
2017,06,25,08,19,15.60
2017,06,25,08,20,15.70
2017,06,25,08,21,15.80
2017,06,25,08,22,15.80
2017,06,25,08,23,15.80
2017,06,25,08,24,15.80
2017,06,25,08,25,15.90
2017,06,25,08,26,15.90
2017,06,25,08,27,16.10
2017,06,25,08,28,16.10
2017,06,25,08,29,16.10
2017,06,25,08,30,16.10
2017,06,25,08,31,16.10
2017,06,25,08,32,16.10
2017,06,25,08,33,16.10
2017,06,25,08,34,16.10
2017,06,25,08,35,16.10
2017,06,25,08,36,16.10
2017,06,25,08,37,16.20
2017,06,25,08,38,16.20
2017,06,25,08,39,16.20
2017,06,25,08,40,16.20
2017,06,25,08,41,16.30
2017,06,25,08,42,16.30
2017,06,25,08,43,16.30
2017,06,25,08,44,16.30
2017,06,25,08,45,16.40
2017,06,25,08,46,16.40
2017,06,25,08,47,16.30
2017,06,25,08,48,16.30
2017,06,25,08,49,16.30
2017,06,25,08,50,16.30
2017,06,25,08,51,16.30
2017,06,25,08,52,16.20
2017,06,25,08,53,16.20
2017,06,25,08,54,16.20
2017,06,25,08,55,16.20
2017,06,25,08,56,16.20
2017,06,25,08,57,16.20
2017,06,25,08,58,16.20
2017,06,25,08,59,16.20
2017,06,25,09,00,16.20
2017,06,25,09,01,16.20
2017,06,25,09,02,16.30
2017,06,25,09,03,16.30
2017,06,25,09,04,16.40
2017,06,25,09,05,16.40
2017,06,25,09,06,16.40
2017,06,25,09,07,16.60
2017,06,25,09,08,16.70
2017,06,25,09,09,16.70
2017,06,25,09,10,16.70
2017,06,25,09,11,16.80
2017,06,25,09,12,16.90
2017,06,25,09,13,16.90
2017,06,25,09,14,17.00
2017,06,25,09,15,17.10
2017,06,25,09,16,17.20
2017,06,25,09,17,17.30
2017,06,25,09,18,17.30
2017,06,25,09,19,17.30
2017,06,25,09,20,17.30
2017,06,25,09,21,17.30
2017,06,25,09,22,17.30
2017,06,25,09,23,17.30
2017,06,25,09,24,17.30
2017,06,25,09,25,17.30
2017,06,25,09,26,17.30
2017,06,25,09,27,17.30
2017,06,25,09,28,17.30
2017,06,25,09,29,17.30
2017,06,25,09,30,17.30
2017,06,25,09,31,17.30
2017,06,25,09,32,17.30
2017,06,25,09,33,17.30
2017,06,25,09,34,17.30
2017,06,25,09,35,17.30
2017,06,25,09,36,17.30
2017,06,25,09,38,17.50
2017,06,25,09,39,17.60
2017,06,25,09,40,17.70
2017,06,25,09,42,17.90
2017,06,25,09,43,17.90
2017,06,25,09,44,18.10
2017,06,25,09,46,18.20
2017,06,25,09,47,18.20
2017,06,25,09,48,18.20
2017,06,25,09,49,18.20
2017,06,25,09,51,18.20
2017,06,25,09,52,18.30
2017,06,25,09,53,18.30
2017,06,25,09,54,18.30
2017,06,25,09,56,18.30
2017,06,25,09,57,18.40
2017,06,25,09,58,18.40
2017,06,25,09,59,18.50
2017,06,25,10,01,18.50
2017,06,25,10,02,18.60
2017,06,25,10,03,18.60
2017,06,25,10,04,18.70
2017,06,25,10,06,18.80
2017,06,25,10,07,18.80
2017,06,25,10,08,18.90
2017,06,25,10,09,18.90
2017,06,25,10,11,18.90
2017,06,25,10,12,19.10
2017,06,25,10,13,19.10
2017,06,25,10,14,19.10
2017,06,25,10,16,19.20
2017,06,25,10,17,19.20
2017,06,25,10,18,19.40
2017,06,25,10,19,19.50
2017,06,25,10,21,19.70
2017,06,25,10,22,19.80
2017,06,25,10,23,19.90
2017,06,25,10,24,19.90
2017,06,25,10,26,20.10
2017,06,25,10,27,20.20
2017,06,25,10,28,20.20
2017,06,25,10,29,20.20
2017,06,25,10,31,20.20
2017,06,25,10,32,20.20
2017,06,25,10,33,20.20
2017,06,25,10,34,20.30
2017,06,25,10,36,20.30
2017,06,25,10,37,20.30
2017,06,25,10,38,20.30
2017,06,25,10,39,20.40
2017,06,25,10,41,20.50
2017,06,25,10,42,20.50
2017,06,25,10,43,20.60
2017,06,25,10,44,20.50
2017,06,25,10,46,20.50
2017,06,25,10,47,20.50
2017,06,25,10,48,20.50
2017,06,25,10,49,20.40
2017,06,25,10,51,20.30
2017,06,25,10,52,20.30
2017,06,25,10,53,20.20
2017,06,25,10,54,20.20
2017,06,25,10,56,20.20
2017,06,25,10,57,20.20
2017,06,25,10,58,20.20
2017,06,25,10,59,20.20
2017,06,25,11,00,20.30
2017,06,25,11,01,20.30
2017,06,25,11,02,20.30
2017,06,25,11,03,20.40
2017,06,25,11,04,20.50
2017,06,25,11,06,20.70
2017,06,25,11,07,20.80
2017,06,25,11,08,20.80
2017,06,25,11,09,20.90
2017,06,25,11,10,20.90
2017,06,25,11,11,20.90
2017,06,25,11,12,20.80
2017,06,25,11,13,20.80
2017,06,25,11,14,20.70
2017,06,25,11,15,20.60
2017,06,25,11,16,20.50
2017,06,25,11,17,20.40
2017,06,25,11,18,20.30
2017,06,25,11,19,20.30
2017,06,25,11,20,20.20
2017,06,25,11,21,20.20
2017,06,25,11,22,20.20
2017,06,25,11,23,20.20
2017,06,25,11,24,20.30
2017,06,25,11,25,20.40
2017,06,25,11,26,20.40
2017,06,25,11,27,20.50
2017,06,25,11,28,20.60
2017,06,25,11,29,20.70
2017,06,25,11,30,20.80
2017,06,25,11,31,20.90
2017,06,25,11,32,21.10
2017,06,25,11,33,21.20
2017,06,25,11,34,21.30
2017,06,25,11,35,21.30
2017,06,25,11,36,21.30
2017,06,25,11,37,21.30
2017,06,25,11,38,21.30
2017,06,25,11,39,21.30
2017,06,25,11,40,21.30
2017,06,25,11,41,21.20
2017,06,25,11,42,21.20
2017,06,25,11,43,21.20
2017,06,25,11,44,21.10
2017,06,25,11,45,21.10
2017,06,25,11,46,21.10
2017,06,25,11,47,21.20
2017,06,25,11,48,21.20
2017,06,25,11,49,21.20
2017,06,25,11,50,21.30
2017,06,25,11,51,21.30
2017,06,25,11,52,21.30
2017,06,25,11,53,21.30
2017,06,25,11,54,21.40
2017,06,25,11,55,21.40
2017,06,25,11,56,21.40
2017,06,25,11,57,21.40
2017,06,25,11,58,21.40
2017,06,25,11,59,21.40
2017,06,25,12,00,21.30
2017,06,25,12,01,21.30
2017,06,25,12,02,21.30
2017,06,25,12,03,21.30
2017,06,25,12,04,21.20
2017,06,25,12,05,21.20
2017,06,25,12,06,21.10
2017,06,25,12,07,21.10
2017,06,25,12,08,21.00
2017,06,25,12,09,21.00
2017,06,25,12,10,21.10
2017,06,25,12,11,21.10
2017,06,25,12,12,21.10
2017,06,25,12,13,21.20
2017,06,25,12,14,21.20
2017,06,25,12,15,21.30
2017,06,25,12,16,21.30
2017,06,25,12,17,21.30
2017,06,25,12,18,21.30
2017,06,25,12,19,21.40
2017,06,25,12,20,21.60
2017,06,25,12,21,21.60
2017,06,25,12,22,21.60
2017,06,25,12,23,21.60
2017,06,25,12,24,21.60
2017,06,25,12,25,21.70
2017,06,25,12,26,21.80
2017,06,25,12,27,21.90
2017,06,25,12,29,22.10
2017,06,25,12,31,22.20
2017,06,25,12,32,22.20
2017,06,25,12,33,22.30
2017,06,25,12,34,22.30
2017,06,25,12,36,22.30
2017,06,25,12,37,22.40
2017,06,25,12,38,22.40
2017,06,25,12,39,22.30
2017,06,25,12,41,22.30
2017,06,25,12,42,22.30
2017,06,25,12,43,22.20
2017,06,25,12,44,22.20
2017,06,25,12,46,22.20
2017,06,25,12,47,22.10
2017,06,25,12,48,22.10
2017,06,25,12,49,22.10
2017,06,25,12,51,22.20
2017,06,25,12,52,22.20
2017,06,25,12,53,22.20
2017,06,25,12,54,22.20
2017,06,25,12,56,22.20
2017,06,25,12,57,22.20
2017,06,25,12,58,22.20
2017,06,25,12,59,22.20
2017,06,25,13,01,22.10
2017,06,25,13,02,22.10
2017,06,25,13,03,22.20
2017,06,25,13,04,22.20
2017,06,25,13,06,22.30
2017,06,25,13,07,22.40
2017,06,25,13,08,22.40
2017,06,25,13,09,22.40
2017,06,25,13,11,22.30
2017,06,25,13,12,22.30
2017,06,25,13,13,22.20
2017,06,25,13,14,22.10
2017,06,25,13,16,21.90
2017,06,25,13,17,21.80
2017,06,25,13,18,21.70
2017,06,25,13,19,21.70
2017,06,25,13,21,21.80
2017,06,25,13,22,21.90
2017,06,25,13,23,22.00
2017,06,25,13,24,22.10
2017,06,25,13,26,22.30
2017,06,25,13,27,22.40
2017,06,25,13,28,22.40
2017,06,25,13,29,22.40
2017,06,25,13,31,22.40
2017,06,25,13,32,22.40
2017,06,25,13,33,22.40
2017,06,25,13,34,22.40
2017,06,25,13,36,22.40
2017,06,25,13,37,22.40
2017,06,25,13,38,22.40
2017,06,25,13,39,22.40
2017,06,25,13,41,22.40
2017,06,25,13,42,22.50
2017,06,25,13,43,22.50
2017,06,25,13,44,22.60
2017,06,25,13,46,22.70
2017,06,25,13,47,22.80
2017,06,25,13,48,22.80
2017,06,25,13,49,22.90
2017,06,25,13,51,22.90
2017,06,25,13,52,22.90
2017,06,25,13,53,22.90
2017,06,25,13,54,23.10
2017,06,25,13,56,23.20
2017,06,25,13,57,23.30
2017,06,25,13,58,23.30
2017,06,25,13,59,23.30
2017,06,25,14,00,23.30
2017,06,25,14,01,23.30
2017,06,25,14,02,23.40
2017,06,25,14,03,23.40
2017,06,25,14,04,23.60
2017,06,25,14,06,23.70
2017,06,25,14,07,23.70
2017,06,25,14,08,23.70
2017,06,25,14,09,23.80
2017,06,25,14,10,23.80
2017,06,25,14,11,23.90
2017,06,25,14,12,23.90
2017,06,25,14,13,23.80
2017,06,25,14,14,23.80
2017,06,25,14,15,23.80
2017,06,25,14,16,23.70
2017,06,25,14,17,23.70
2017,06,25,14,18,23.60
2017,06,25,14,19,23.40
2017,06,25,14,20,23.40
2017,06,25,14,21,23.30
2017,06,25,14,22,23.30
2017,06,25,14,23,23.30
2017,06,25,14,24,23.30
2017,06,25,14,25,23.30
2017,06,25,14,26,23.30
2017,06,25,14,27,23.30
2017,06,25,14,28,23.30
2017,06,25,14,29,23.30
2017,06,25,14,30,23.30
2017,06,25,14,31,23.30
2017,06,25,14,32,23.30
2017,06,25,14,33,23.30
2017,06,25,14,34,23.30
2017,06,25,14,35,23.30
2017,06,25,14,36,23.30
2017,06,25,14,37,23.30
2017,06,25,14,38,23.30
2017,06,25,14,39,23.30
2017,06,25,14,40,23.30
2017,06,25,14,41,23.30
2017,06,25,14,42,23.30
2017,06,25,14,43,23.30
2017,06,25,14,44,23.30
2017,06,25,14,45,23.20
2017,06,25,14,46,23.20
2017,06,25,14,47,23.20
2017,06,25,14,48,23.20
2017,06,25,14,49,23.30
2017,06,25,14,50,23.30
2017,06,25,14,51,23.30
2017,06,25,14,52,23.30
2017,06,25,14,53,23.20
2017,06,25,14,54,23.10
2017,06,25,14,55,22.90
2017,06,25,14,56,22.90
2017,06,25,14,57,22.80
2017,06,25,14,58,22.80
2017,06,25,14,59,22.80
2017,06,25,15,00,22.80
2017,06,25,15,01,22.80
2017,06,25,15,02,22.80
2017,06,25,15,03,22.80
2017,06,25,15,04,22.80
2017,06,25,15,05,22.80
2017,06,25,15,06,22.80
2017,06,25,15,07,22.80
2017,06,25,15,08,22.80
2017,06,25,15,09,22.80
2017,06,25,15,10,22.80
2017,06,25,15,11,22.80
2017,06,25,15,12,22.80
2017,06,25,15,13,22.80
2017,06,25,15,14,22.70
2017,06,25,15,15,22.70
2017,06,25,15,16,22.70
2017,06,25,15,18,22.70
2017,06,25,15,19,22.70
2017,06,25,15,21,22.80
2017,06,25,15,22,22.80
2017,06,25,15,23,22.90
2017,06,25,15,24,22.90
2017,06,25,15,26,22.90
2017,06,25,15,27,22.90
2017,06,25,15,28,23.10
2017,06,25,15,29,23.10
2017,06,25,15,31,23.10
2017,06,25,15,32,23.10
2017,06,25,15,33,23.10
2017,06,25,15,34,23.10
2017,06,25,15,36,23.20
2017,06,25,15,37,23.20
2017,06,25,15,38,23.30
2017,06,25,15,39,23.30
2017,06,25,15,41,23.40
2017,06,25,15,42,23.40
2017,06,25,15,43,23.60
2017,06,25,15,44,23.70
2017,06,25,15,46,23.70
2017,06,25,15,47,23.80
2017,06,25,15,48,23.90
2017,06,25,15,49,24.10
2017,06,25,15,51,24.10
2017,06,25,15,52,24.20
2017,06,25,15,53,24.30
2017,06,25,15,54,24.40
2017,06,25,15,56,24.60
2017,06,25,15,57,24.70
2017,06,25,15,58,24.70
2017,06,25,15,59,24.70
2017,06,25,16,01,24.70
2017,06,25,16,02,24.80
2017,06,25,16,03,24.80
2017,06,25,16,04,24.80
2017,06,25,16,06,24.90
2017,06,25,16,07,25.00
2017,06,25,16,08,25.20
2017,06,25,16,09,25.30
2017,06,25,16,11,25.60
2017,06,25,16,12,25.70
2017,06,25,16,13,25.90
2017,06,25,16,14,26.00
2017,06,25,16,16,26.40
2017,06,25,16,17,26.60
2017,06,25,16,18,26.80
2017,06,25,16,19,27.10
2017,06,25,16,21,27.40
2017,06,25,16,22,27.60
2017,06,25,16,23,27.80
2017,06,25,16,24,28.00
2017,06,25,16,26,28.20
2017,06,25,16,27,28.30
2017,06,25,16,28,28.40
2017,06,25,16,29,28.60
2017,06,25,16,31,28.80
2017,06,25,16,32,28.80
2017,06,25,16,33,28.90
2017,06,25,16,34,28.90
2017,06,25,16,36,28.90
2017,06,25,16,37,28.90
2017,06,25,16,38,28.90
2017,06,25,16,39,28.90
2017,06,25,16,41,28.90
2017,06,25,16,42,28.90
2017,06,25,16,43,28.90
2017,06,25,16,44,28.80
2017,06,25,16,45,28.70
2017,06,25,16,46,28.60
2017,06,25,16,47,28.60
2017,06,25,16,48,28.30
2017,06,25,16,49,28.30
2017,06,25,16,50,28.20
2017,06,25,16,51,28.20
2017,06,25,16,52,28.20
2017,06,25,16,53,28.10
2017,06,25,16,54,28.10
2017,06,25,16,55,28.10
2017,06,25,16,56,28.10
2017,06,25,16,57,28.00
2017,06,25,16,58,28.00
2017,06,25,16,59,28.00
2017,06,25,17,00,27.90
2017,06,25,17,01,27.90
2017,06,25,17,02,27.90
2017,06,25,17,03,27.80
2017,06,25,17,04,27.80
2017,06,25,17,06,27.80
2017,06,25,17,07,27.70
2017,06,25,17,08,27.70
2017,06,25,17,09,27.60
2017,06,25,17,10,27.60
2017,06,25,17,11,27.30
2017,06,25,17,12,27.30
2017,06,25,17,13,27.20
2017,06,25,17,14,27.10
2017,06,25,17,15,26.90
2017,06,25,17,16,26.80
2017,06,25,17,17,26.70
2017,06,25,17,18,26.70
2017,06,25,17,19,26.70
2017,06,25,17,20,26.60
2017,06,25,17,21,26.60
2017,06,25,17,22,26.60
2017,06,25,17,23,26.60
2017,06,25,17,24,26.60
2017,06,25,17,25,26.60
2017,06,25,17,26,26.70
2017,06,25,17,27,26.70
2017,06,25,17,28,26.70
2017,06,25,17,29,26.70
2017,06,25,17,30,26.70
2017,06,25,17,31,26.70
2017,06,25,17,32,26.60
2017,06,25,17,33,26.60
2017,06,25,17,34,26.60
2017,06,25,17,35,26.60
2017,06,25,17,36,26.60
2017,06,25,17,37,26.60
2017,06,25,17,38,26.40
2017,06,25,17,39,26.40
2017,06,25,17,40,26.30
2017,06,25,17,41,26.20
2017,06,25,17,42,26.10
2017,06,25,17,43,26.00
2017,06,25,17,44,25.90
2017,06,25,17,45,25.80
2017,06,25,17,46,25.70
2017,06,25,17,47,25.60
2017,06,25,17,48,25.40
2017,06,25,17,49,25.20
2017,06,25,17,50,25.00
2017,06,25,17,51,24.80
2017,06,25,17,52,24.60
2017,06,25,17,53,24.40
2017,06,25,17,54,24.10
2017,06,25,17,55,23.80
2017,06,25,17,56,23.70
2017,06,25,17,57,23.40
2017,06,25,17,58,23.30
2017,06,25,17,59,23.20
2017,06,25,18,00,22.90
2017,06,25,18,01,22.90
2017,06,25,18,02,22.80
2017,06,25,18,03,22.60
2017,06,25,18,04,22.50
2017,06,25,18,05,22.40
2017,06,25,18,07,22.30
2017,06,25,18,08,22.20
2017,06,25,18,09,22.20
2017,06,25,18,11,22.10
2017,06,25,18,12,22.10
2017,06,25,18,13,22.10
2017,06,25,18,14,22.10
2017,06,25,18,16,22.20
2017,06,25,18,17,22.20
2017,06,25,18,18,22.30
2017,06,25,18,19,22.30
2017,06,25,18,21,22.40
2017,06,25,18,22,22.50
2017,06,25,18,23,22.50
2017,06,25,18,24,22.50
2017,06,25,18,26,22.60
2017,06,25,18,27,22.60
2017,06,25,18,28,22.60
2017,06,25,18,29,22.60
2017,06,25,18,31,22.40
2017,06,25,18,32,22.40
2017,06,25,18,33,22.30
2017,06,25,18,34,22.20
2017,06,25,18,36,22.10
2017,06,25,18,37,22.10
2017,06,25,18,38,22.10
2017,06,25,18,39,22.10
2017,06,25,18,41,22.00
2017,06,25,18,42,21.90
2017,06,25,18,43,21.80
2017,06,25,18,44,21.70
2017,06,25,18,46,21.60
2017,06,25,18,47,21.40
2017,06,25,18,48,21.30
2017,06,25,18,49,21.20
2017,06,25,18,51,21.00
2017,06,25,18,52,20.90
2017,06,25,18,53,20.90
2017,06,25,18,54,20.80
2017,06,25,18,56,20.80
2017,06,25,18,57,20.80
2017,06,25,18,58,20.80
2017,06,25,18,59,20.80
2017,06,25,19,01,20.80
2017,06,25,19,02,20.90
2017,06,25,19,03,20.90
2017,06,25,19,04,20.90
2017,06,25,19,06,21.00
2017,06,25,19,07,21.10
2017,06,25,19,08,21.10
2017,06,25,19,09,21.20
2017,06,25,19,11,21.30
2017,06,25,19,12,21.30
2017,06,25,19,13,21.30
2017,06,25,19,14,21.30
2017,06,25,19,16,21.00
2017,06,25,19,17,20.80
2017,06,25,19,18,20.60
2017,06,25,19,19,20.40
2017,06,25,19,21,20.20
2017,06,25,19,22,20.10
2017,06,25,19,23,20.10
2017,06,25,19,24,19.90
2017,06,25,19,26,19.90
2017,06,25,19,27,20.10